Погода в Нелькане

Погода в Нелькане : погода сейчас, прогноз погоды и архив. Всё, что Вы хотите узнать о погоде в Нелькане!

Поиск расширенной информации на нашем сайте:

Другие новости

Новости СМИ2

Главная страница сайта

Новости сайта

03.07.2017

Напоминаем, что на нашем специализированном сайте Метеоцентр.Азия вы можете получить высокодетализированные автоматические прогнозы погоды по пунктам России, СНГ и мира в авиационном формате (включающие направление и скорость ветра, видимость, явления погоды, количество и форму облачности, нижнюю и верхнюю границу облачности).

Рекомендуем: полировка кузова автомобиля

Погода в Нелькане - сегодня

Время (UTC), дата Ветер
(°,м/с) 
Видим.   Явления Облачность Т
(°С)
Тd
(°С)
f(%) Тe
(°С)
Pmin
(гПа)
dP
(гПа)
Po
(мм)
O2
(г/м3)
Тmin Tmax R s Состояние
почвы
18 17.11.17 230 (ЮЗ) 20000 м    ясно 
-32.7 -36.5 69 -37  1027.7  -0.5  737  339           
21 17.11.17 250 (З) 20000 м    ясно 
-34.5 -37.4 75 -39  1028.2  0.6  737  342  -34.5      27  равномерный
сухой снег
100% 
00 18.11.17 200 (Ю) 20000 м    4/0 верхняя 
[Ci sp]
-35.5 -38.4 75 -40  1028.1  -0.3  737  343  -35.5         
03 18.11.17 200 (Ю) 20000 м    6/0 верхняя 
[Ci sp]
-30.2 -33.9 70 -34  1025.9  -1  736  335           
06 18.11.17 230 (ЮЗ) 20000 м    8/0 верхняя 
[Ci sp]
-28 -31.2 74 -29  1024.8  -0.7  735  332           
09 18.11.17 тихо ()   20000 м    3/0 верхняя 
[Ci sp]
-32 -35 75 -32  1025.9  0.4  736  338    -28       
12 18.11.17 тихо ()   20000 м    ясно 
-35 -38 74 -35  1026.9  0.3  736  342           
15 18.11.17 250 (З) 20000 м    4/0 верхняя 
[Ci sp]
-34 -36.8 76 -35  1025.9  -0.7  735  340           
18 18.11.17 250 (З) 20000 м    ясно 
-35.5 -37  1025.7  -0.6  735  340           
21 18.11.17 тихо ()   20000 м    ясно 
-36.2 -39 76 -36  1025.6  -0.1  735  343  -36.2      27  равномерный
сухой снег
100% 
00 19.11.17 250 (З) 20000 м    3/0 верхняя 
[Ci sp]
-36 -39.7 69 -40  1024.9  -0.7  734  343  -36.2         
03 19.11.17 200 (Ю) 20000 м    4/0 верхняя 
[Ci sp]
-31 -34.8 69 -35  1022.5  -1.3  733  335           
06 19.11.17 230 (ЮЗ) 20000 м    3/0 верхняя 
[Ci sp]
-30.2 -33.9 70 -34  1020.6  -1.7  732  334           
09 19.11.17 270 (З) 20000 м    ясно 
-31.7 -34.1 79 -36  1020.3  -0.6  732  335    -30.2       
12 19.11.17 230 (ЮЗ) 20000 м    ясно 
-33.2   1019.5  -0.9  731             
15 19.11.17 250 (З) 20000 м    ясно 
-34 -36.8 76 -35  1017.7  -1.9  730  338           
18 19.11.17 тихо ()   20000 м    10/0 верхняя 
[Cs]
-30.5 -33.6 74 -31  1015.8  -1.4  728  332           
21 19.11.17 340 (С) 20000 м    10/0 средняя, верхняя 
[Ac trans|Cs]
-30.9 -35.3 65 -32  1015.2  -0.5  728  333  -34      27  равномерный
сухой снег
100% 
00 20.11.17 тихо ()   20000 м    8/0 средняя, верхняя 
[Ac trans|Ci sp]
-31.2 -36.6 59 -31  1014  -1.2  727  333  -34         
03 20.11.17 320 (СЗ) 20000 м    10/0 средняя, верхняя 
[Ac trans|Cs]
-29 -34.4 60 -30  1011.2  -2.3  725  329           
06 20.11.17 270 (З) 20000 м    10/0 средняя, верхняя 
[Ac trans|Cs]
-28.5 -34 59 -29  1010.4  -0.7  725  328           
09 20.11.17 тихо ()   20000 м    8/0 средняя, верхняя 
[Ac trans|Ci sp]
-29.8 -33.5 70 -30  1010.3  -0.3  725  330    -28.5       
12 20.11.17 230 (ЮЗ) 20000 м    8/0 верхняя 
[Ci sp]
-30.5 -34.4 69 -31  1009.7  -1  724  330           
15 20.11.17 250 (З) 20000 м    4/0 средняя, верхняя 
[Ac trans|Ci sp]
-31.8 -34.8 75 -36  1009.8  -0.1  724  332           
18 20.11.17 200 (Ю) 20000 м    3/0 верхняя 
[Ci sp]
-37 -40.4 70 -41  1010.9  0.2  724  340           
Время (UTC), дата Ветер
(°,м/с) 
Видим.   Явления Облачность Т
(°С)
Тd
(°С)
f(%) Тe
(°С)
Pmin
(гПа)
dP
(гПа)
Po
(мм)
O2
(г/м3)
Тmin Tmax R s Состояние
почвы

Для получения пояснительной информации подведите курсор к названию столбца.

ПОГОДА в Нелькане - архив

Всё, что Вы хотите узнать о погоде в Нелькане - удобно и подробно!

Выберите нужную дату (начиная с 1 января 2015* года) и нажмите кнопку "Найти".
Будут отображены архивные сводки погоды по пункту Нелькан, начиная с указанной даты.


Отображать данные в формате CSV (для использования в таблицах Excel)


Внимание! Наш архив погоды предназначен исключительно для личного некоммерческого использования в познавательных целях. Если Вам необходимы официальные справки о состоянии погоды (для производственных, юридических, коммерческих и т.п. целей), обращайтесь в органы Росгидромета.

*Примечание: данная дата относится к архиву по метеостанциям СССР (Россия, СНГ, Балтия).
Архив по метеостанциям Зарубежной Европы и Азии (кроме Китая) хранится 10 дней, по другим регионам земного шара (Китай, Африка, Америка, Австралия, Океания) - 1 день.

Нелькан - район местоположения метеостанции


Название, широта, долгота, высота метеостанции:
Нелькан 57.7°ш. 136.2°д. 305 м над ур. моря [Российская Федерация]

Дополнительная информация

В oтличие oт бoльшинства пoгoдных сайтoв мы публикуем пoдрoбную метеoинфoрмацию в детальнoм прoфессиoнальнoм фoрмате.

Характеристики температуры и влажнoсти вoздуха измеряются на высoте 2 м в тени вдали oт зданий и деревьев.
Скoрoсть ветра измеряется на высoте 10 м (на урoвне рoста челoвека скoрoсть ветра ниже в 1.5-2 раза). Если метеoстанция нахoдится в гoрoде или в лесу, тo скoрoсть ветра занижена на 2-4 м/с пo сравнению с oткрытым местoм. Скoрoсть ветра над акватoриями крупных рек и oзёр, а также на вершинах хoлмoв на 2-5 м/с выше, чем в oбычных услoвиях.
Атмoсфернoе давление в разных тoчках местнoсти мoжет значительнo oтличаться oт давления на метеoстанции, в зависимoсти oт услoвий рельефа (при пoдъёме на 10 м давление пoнижается примернo на 1 мм рт.ст.).